Weather History for Mena, AR

Change the Weather History Date:

Monday, April 8, 2013

  Actual Average (KFSM) Record (KFSM)
Temperature  
Mean Temperature 70 °F -  
Max Temperature 77 °F 70 °F 89 °F (2011)
Min Temperature 64 °F 46 °F 24 °F (2007)
Cooling Degree Days 6    
Growing Degree Days 20 (Base 50)    
Moisture  
Dew Point 57 °F    
Average Humidity 60    
Maximum Humidity 88    
Minimum Humidity 47    
Precipitation  
Precipitation 0.06 in - - ()
Sea Level Pressure  
Sea Level Pressure 29.81 in    
Wind  
Wind Speed 8 mph (South)    
Max Wind Speed 12 mph    
Max Gust Speed 22 mph    
Visibility 10 miles    
Events      
Averages and records for this station are not official NWS values.
T = Trace of Precipitation, MM = Missing Value Source: NWS Daily Summary

Daily Weather History Graph

Daily Weather History Graph

Search for Another Location

Airport:

Trip Planner

Search our weather history database for the weather conditions in past years. The results will help you decide how hot, cold, wet, or windy it might be!

Date:

Astronomy

Apr. 08, 2013 Rise Set
Actual Time 6:54 AM CDT 7:43 PM CDT
Civil Twilight 6:28 AM CDT 8:09 PM CDT
Nautical Twilight 5:58 AM CDT 8:39 PM CDT
Astronomical Twilight 5:27 AM CDT 9:10 PM CDT
Moon 5:40 AM CDT (4/8) 6:20 PM CDT (4/8)
Length of Visible Light 13h 40m
Length of Day
12h 49m
Waning Crescent, 3% of the Moon is Illuminated
Apr 8
Waning Crescent
Apr 10
New
Apr 18
First Quarter
Apr 25
Full
May 2
Last Quarter

Hourly Weather History & Observations

Time (CDT) Temp. Dew Point Humidity Pressure Visibility Wind Dir Wind Speed Gust Speed Precip Events Conditions
12:15 AM 69.8 °F 53.6 °F 56% 29.84 in 10.0 mi South 8.1 mph 16.1 mph N/A   Overcast
12:35 AM 69.8 °F 53.6 °F 56% 29.83 in 10.0 mi South 4.6 mph - N/A   Overcast
12:55 AM 69.8 °F 53.6 °F 56% 29.83 in 10.0 mi South 6.9 mph - N/A   Overcast
1:15 AM 69.8 °F 55.4 °F 60% 29.83 in 10.0 mi South 8.1 mph - N/A   Overcast
1:35 AM 69.8 °F 55.4 °F 60% 29.84 in 10.0 mi South 8.1 mph - N/A   Overcast
1:55 AM 68.0 °F 55.4 °F 64% 29.83 in 10.0 mi South 11.5 mph 19.6 mph N/A   Overcast
2:15 AM 68.0 °F 55.4 °F 64% 29.83 in 10.0 mi South 9.2 mph 16.1 mph N/A   Overcast
2:55 AM 68.0 °F 55.4 °F 64% 29.82 in 10.0 mi South 4.6 mph - 0.02 in   Overcast
3:15 AM 68.0 °F 55.4 °F 64% 29.81 in 10.0 mi South 9.2 mph - N/A   Overcast
3:35 AM 68.0 °F 55.4 °F 64% 29.81 in 10.0 mi South 10.4 mph 21.9 mph N/A   Overcast
3:55 AM 68.0 °F 55.4 °F 64% 29.81 in 10.0 mi South 11.5 mph 18.4 mph N/A   Overcast
4:15 AM 66.2 °F 55.4 °F 68% 29.81 in 10.0 mi South 9.2 mph 18.4 mph N/A   Mostly Cloudy
4:35 AM 66.2 °F 55.4 °F 68% 29.80 in 10.0 mi South 10.4 mph 21.9 mph N/A   Scattered Clouds
4:55 AM 66.2 °F 55.4 °F 68% 29.80 in 10.0 mi SSW 11.5 mph 18.4 mph N/A   Mostly Cloudy
5:15 AM 66.2 °F 55.4 °F 68% 29.80 in 10.0 mi South 9.2 mph 17.3 mph N/A   Overcast
5:35 AM 66.2 °F 55.4 °F 68% 29.80 in 10.0 mi South 8.1 mph - N/A   Overcast
5:55 AM 66.2 °F 55.4 °F 68% 29.81 in 10.0 mi South 11.5 mph 18.4 mph 0.01 in   Overcast
6:15 AM 66.2 °F 55.4 °F 68% 29.81 in 10.0 mi South 8.1 mph - N/A   Overcast
6:35 AM 66.2 °F 55.4 °F 68% 29.82 in 10.0 mi South 4.6 mph - N/A   Overcast
6:55 AM 64.4 °F 55.4 °F 73% 29.83 in 10.0 mi SSW 9.2 mph - N/A   Overcast
7:15 AM 64.4 °F 55.4 °F 73% 29.83 in 10.0 mi South 6.9 mph 16.1 mph N/A   Overcast
7:35 AM 64.4 °F 55.4 °F 73% 29.84 in 10.0 mi SSW 8.1 mph 16.1 mph N/A   Overcast
8:15 AM 64.4 °F 57.2 °F 77% 29.84 in 10.0 mi SW 3.5 mph - N/A   Overcast
8:35 AM 64.4 °F 59.0 °F 83% 29.85 in 10.0 mi South 4.6 mph - N/A   Overcast
9:15 AM 64.4 °F 59.0 °F 83% 29.85 in 7.0 mi South 6.9 mph - N/A   Overcast
9:55 AM 64.4 °F 60.8 °F 88% 29.85 in 5.0 mi SSW 5.8 mph - N/A   Haze
10:15 AM 66.2 °F 60.8 °F 83% 29.86 in 7.0 mi SSW 6.9 mph - N/A   Overcast
10:35 AM 64.4 °F 60.8 °F 88% 29.86 in 5.0 mi South 6.9 mph 16.1 mph N/A   Overcast
10:55 AM 66.2 °F 60.8 °F 83% 29.87 in 7.0 mi South 5.8 mph - N/A   Overcast
11:15 AM 68.0 °F 60.8 °F 78% 29.87 in 10.0 mi South 3.5 mph - N/A   Overcast
11:35 AM 68.0 °F 59.0 °F 73% 29.86 in 10.0 mi SSW 3.5 mph - 0.02 in   Overcast
11:55 AM 71.6 °F 59.0 °F 64% 29.86 in 10.0 mi SW 4.6 mph - 0.02 in   Overcast
12:15 PM 71.6 °F 59.0 °F 64% 29.85 in 10.0 mi South 5.8 mph - N/A   Overcast
12:35 PM 73.4 °F 59.0 °F 61% 29.85 in 10.0 mi SW 3.5 mph - N/A   Overcast
12:55 PM 75.2 °F 57.2 °F 53% 29.84 in 10.0 mi South 9.2 mph 18.4 mph N/A   Overcast
1:15 PM 75.2 °F 57.2 °F 53% 29.84 in 10.0 mi South 10.4 mph - N/A   Mostly Cloudy
1:35 PM 77.0 °F 57.2 °F 50% 29.83 in 10.0 mi SSW 8.1 mph 21.9 mph N/A   Mostly Cloudy
1:55 PM 77.0 °F 55.4 °F 47% 29.82 in 10.0 mi South 9.2 mph 19.6 mph N/A   Overcast
2:15 PM 77.0 °F 55.4 °F 47% 29.82 in 10.0 mi SSW 9.2 mph 17.3 mph N/A   Overcast
2:35 PM 77.0 °F 55.4 °F 47% 29.81 in 10.0 mi South 6.9 mph 16.1 mph N/A   Mostly Cloudy
2:55 PM 77.0 °F 55.4 °F 47% 29.81 in 10.0 mi SSW 6.9 mph - N/A   Mostly Cloudy
3:15 PM 77.0 °F 55.4 °F 47% 29.80 in 10.0 mi South 10.4 mph 17.3 mph N/A   Overcast
3:35 PM 77.0 °F 57.2 °F 50% 29.79 in 10.0 mi SSE 5.8 mph - N/A   Overcast
3:55 PM 77.0 °F 57.2 °F 50% 29.79 in 10.0 mi South 8.1 mph - N/A   Overcast
4:15 PM 77.0 °F 57.2 °F 50% 29.78 in 10.0 mi SSE 9.2 mph 16.1 mph N/A   Overcast
4:35 PM 77.0 °F 57.2 °F 50% 29.78 in 10.0 mi SE 9.2 mph 16.1 mph N/A   Overcast
4:55 PM 77.0 °F 57.2 °F 50% 29.77 in 10.0 mi SE 3.5 mph - N/A   Overcast
5:15 PM 77.0 °F 57.2 °F 50% 29.78 in 10.0 mi SE 5.8 mph - 0.01 in   Overcast
5:35 PM 77.0 °F 59.0 °F 54% 29.78 in 10.0 mi SSE 8.1 mph - 0.01 in   Overcast
5:55 PM 77.0 °F 59.0 °F 54% 29.78 in 10.0 mi SE 8.1 mph - 0.01 in   Overcast
6:15 PM 77.0 °F 59.0 °F 54% 29.78 in 10.0 mi SSE 10.4 mph 17.3 mph N/A   Overcast
6:35 PM 77.0 °F 59.0 °F 54% 29.78 in 10.0 mi SSE 6.9 mph - N/A   Overcast
6:55 PM 77.0 °F 57.2 °F 50% 29.77 in 10.0 mi SE 5.8 mph - N/A   Overcast
7:15 PM 77.0 °F 57.2 °F 50% 29.77 in 10.0 mi SE 5.8 mph - N/A   Overcast
7:35 PM 77.0 °F 55.4 °F 47% 29.78 in 10.0 mi SSE 3.5 mph - N/A   Overcast
7:55 PM 77.0 °F 55.4 °F 47% 29.78 in 10.0 mi SE 5.8 mph - N/A   Overcast
8:15 PM 77.0 °F 55.4 °F 47% 29.78 in 10.0 mi SSE 9.2 mph - N/A   Overcast
8:35 PM 77.0 °F 55.4 °F 47% 29.78 in 10.0 mi SSE 8.1 mph - N/A   Overcast
8:55 PM 77.0 °F 55.4 °F 47% 29.79 in 10.0 mi SSE 8.1 mph - N/A   Overcast
9:15 PM 77.0 °F 55.4 °F 47% 29.79 in 10.0 mi SE 5.8 mph - N/A   Overcast
9:35 PM 77.0 °F 55.4 °F 47% 29.80 in 10.0 mi SSE 9.2 mph - N/A   Overcast
9:55 PM 75.2 °F 55.4 °F 50% 29.81 in 10.0 mi SSE 10.4 mph 18.4 mph N/A   Overcast
10:15 PM 75.2 °F 55.4 °F 50% 29.81 in 10.0 mi SE 5.8 mph - N/A   Overcast
10:35 PM 75.2 °F 55.4 °F 50% 29.81 in 10.0 mi SSE 9.2 mph 21.9 mph N/A   Overcast
10:55 PM 73.4 °F 57.2 °F 57% 29.81 in 10.0 mi SE 6.9 mph 18.4 mph N/A   Overcast
11:15 PM 73.4 °F 57.2 °F 57% 29.80 in 10.0 mi SE 5.8 mph 18.4 mph N/A   Overcast
11:35 PM 73.4 °F 57.2 °F 57% 29.81 in 10.0 mi SE 9.2 mph - N/A   Mostly Cloudy